TimeCDT,TemperatureF,Dew PointF,Humidity,Sea Level PressureIn,VisibilityMPH,Wind Direction,Wind SpeedMPH,Gust SpeedMPH,PrecipitationIn,Events,Conditions,WindDirDegrees,DateUTC
12:53 AM,63.0,61.0,93,30.16,9.0,Calm,Calm,-,N/A,,Clear,0,2012-10-05 05:53:00
1:53 AM,62.1,61.0,96,30.15,8.0,Calm,Calm,-,N/A,,Clear,0,2012-10-05 06:53:00
3:53 AM,62.1,59.0,90,30.14,10.0,Calm,Calm,-,N/A,,Clear,0,2012-10-05 08:53:00
4:53 AM,64.0,60.1,87,30.14,10.0,Calm,Calm,-,N/A,,Clear,0,2012-10-05 09:53:00
5:53 AM,63.0,60.1,90,30.14,10.0,Calm,Calm,-,N/A,,Clear,0,2012-10-05 10:53:00
6:53 AM,60.1,59.0,96,30.15,9.0,Calm,Calm,-,N/A,,Clear,0,2012-10-05 11:53:00
7:53 AM,63.0,61.0,93,30.15,8.0,Calm,Calm,-,N/A,,Clear,0,2012-10-05 12:53:00
8:53 AM,70.0,62.1,76,30.15,10.0,Calm,Calm,-,N/A,,Clear,0,2012-10-05 13:53:00
9:53 AM,75.0,63.0,66,30.15,10.0,Calm,Calm,-,N/A,,Clear,0,2012-10-05 14:53:00
10:53 AM,79.0,63.0,58,30.14,10.0,Calm,Calm,-,N/A,,Clear,0,2012-10-05 15:53:00
12:53 PM,82.0,57.9,44,30.10,10.0,Variable,3.5,-,N/A,,Clear,0,2012-10-05 17:53:00
1:53 PM,82.0,55.0,39,30.07,10.0,Calm,Calm,-,N/A,,Clear,0,2012-10-05 18:53:00
2:53 PM,82.9,57.0,41,30.04,10.0,Calm,Calm,-,N/A,,Clear,0,2012-10-05 19:53:00
3:53 PM,82.9,55.9,39,30.03,10.0,Calm,Calm,-,N/A,,Clear,0,2012-10-05 20:53:00
4:53 PM,82.9,55.0,38,30.01,10.0,Calm,Calm,-,N/A,,Clear,0,2012-10-05 21:53:00
5:53 PM,81.0,60.1,49,30.00,10.0,Calm,Calm,-,N/A,,Clear,0,2012-10-05 22:53:00
6:53 PM,72.0,66.0,81,30.01,10.0,Calm,Calm,-,N/A,,Clear,0,2012-10-05 23:53:00
7:53 PM,69.1,64.0,84,30.01,10.0,Calm,Calm,-,N/A,,Clear,0,2012-10-06 00:53:00
8:53 PM,66.0,63.0,90,30.02,10.0,Calm,Calm,-,N/A,,Clear,0,2012-10-06 01:53:00
9:53 PM,64.9,62.1,90,30.03,10.0,Calm,Calm,-,N/A,,Clear,0,2012-10-06 02:53:00
10:53 PM,64.0,62.1,93,30.02,10.0,Calm,Calm,-,N/A,,Clear,0,2012-10-06 03:53:00
11:53 PM,64.0,61.0,90,30.02,8.0,Calm,Calm,-,N/A,,Clear,0,2012-10-06 04:53:00